Погода в Эйре

Великобритания     55°27′30″N   4°38′04″W
темп.,
°C
ветер,
м/с
пор.,
м/с
влажн.,
%
обл.,
%
осадки,
мм/ч
давл.,
гПа
погр.,
м
5 марта, пт
пт500:00+2в356931 0.0 1033281
03:00+1всв337895 0.0 1033135
06:00+1в338048 0.0 1034150
09:00+2в33740 0.0 1035205
12:00+5ссз015713 0.0 1035611
15:00+4зсз336435 0.0 1035235
18:00+4зюз337064 0.0 1034459
21:00+3ю347362 0.0 1036445
6 марта, сб
сб600:00+3ю347731 0.0 1035290
03:00+2ю34770 0.0 1034363
06:00+3ю347341 0.0 1035370
09:00+5юз5567100 0.0 10341023
12:00+5юз666986 0.0 1034844
15:00+5юз67720 0.0 1032660
18:00+5юз46733 0.0 1031538
21:00+4ю45790 0.0 1031349
7 марта, вс
вс700:00+3ю45840 0.0 1030263
03:00+4ююз458520 0.0 1029267
06:00+4ююз358611 0.0 1028262
09:00+5ююз35840 0.0 1028272
12:00+6юз44830 0.0 1026297
15:00+6юз458540 0.0 1025218
18:00+6юз348762 0.0 102492
21:00+6ююз448697 0.0 1024113
8 марта, пн
пн800:00+6ю348698 0.0 1024116
03:00+6ююз578998 0.0 1023222
06:00+5ююз468693 0.0 1023259
09:00+5ю468384 0.0 1022341
12:00+7юз688191 0.0 1021522
15:00+7юз578099 0.0 1019371
18:00+6ю698199 0.0 1018380
21:00+6ююв6982100 0.0 1018363
9 марта, вт
вт900:00+6ю61091100 0.7 1016369
03:00+6ю51095100 1.1 1014372
06:00+6ююз6109499 1.2 1013328
09:00+7ююз799281 0.0 1012392
12:00+8ююз8118890 0.0 1010533
15:00+8ю81281100 0.1 1007517
18:00+8ю101684100 0.3 1001805
21:00+8ю142290100 8.5 995806